Location: Akdamlar
(36.8729°N, 30.5187°E)
Time: 21:25:51
(UTC+00:00)

Cosmos 1975 - Pass Details

Date: 18 September 2020
Orbit: 540 x 562 km, 82.5° (Epoch: 24 October)

Event Time Altitude Azimuth Distance (km) Brightness Sun altitude
Rises 17:05:36 0° 203° (SSW) 2,738 6.5 -13.7°
Reaches altitude 10° 17:07:52 10° 211° (SSW) 1,848 5.7 -14.2°
Maximum altitude 17:11:41 38° 281° (W) 860 4.4 -14.9°
Drops below altitude 10° 17:15:32 10° 350° (N) 1,858 5.8 -15.7°
Sets 17:17:50 0° 359° (N) 2,756 6.6 -16.1°
